����������;��������(kWh)
2018-04-09 00:00;66,6
2018-04-09 00:15;69
2018-04-09 00:30;66,85
2018-04-09 00:45;66,95
2018-04-09 01:00;69,65
2018-04-09 01:15;67,15
2018-04-09 01:30;68,4
2018-04-09 01:45;70,05
2018-04-09 02:00;68,7
2018-04-09 02:15;69,1
2018-04-09 02:30;69,55
2018-04-09 02:45;69,8
2018-04-09 03:00;69,35
2018-04-09 03:15;69,7
2018-04-09 03:30;71,65
2018-04-09 03:45;71,65
2018-04-09 04:00;70,25
2018-04-09 04:15;69,95
2018-04-09 04:30;70,25
2018-04-09 04:45;69,5
2018-04-09 05:00;69,7
2018-04-09 05:15;71,6
2018-04-09 05:30;69,9
2018-04-09 05:45;69,15
2018-04-09 06:00;69,35
2018-04-09 06:15;67,85
2018-04-09 06:30;67
2018-04-09 06:45;67,35
2018-04-09 07:00;62,4
2018-04-09 07:15;59,55
2018-04-09 07:30;59,9
2018-04-09 07:45;62,6
2018-04-09 08:00;61,6
2018-04-09 08:15;63,1
2018-04-09 08:30;65
2018-04-09 08:45;61,9
2018-04-09 09:00;63,35
2018-04-09 09:15;63,6
2018-04-09 09:30;66,5
2018-04-09 09:45;65,5
2018-04-09 10:00;65,45
2018-04-09 10:15;65,5
2018-04-09 10:30;62,05
2018-04-09 10:45;63
2018-04-09 11:00;64,2
2018-04-09 11:15;64,35
2018-04-09 11:30;64,05
2018-04-09 11:45;65,85
2018-04-09 12:00;67,05
2018-04-09 12:15;66,35
2018-04-09 12:30;68,25
2018-04-09 12:45;69,75
2018-04-09 13:00;70,85
2018-04-09 13:15;71,3
2018-04-09 13:30;71,7
2018-04-09 13:45;71,1
2018-04-09 14:00;71,1
2018-04-09 14:15;68,1
2018-04-09 14:30;66,7
2018-04-09 14:45;68,2
2018-04-09 15:00;68
2018-04-09 15:15;69,55
2018-04-09 15:30;64,2
2018-04-09 15:45;64
2018-04-09 16:00;64,15
2018-04-09 16:15;64,2
2018-04-09 16:30;59
2018-04-09 16:45;60,95
2018-04-09 17:00;63,4
2018-04-09 17:15;63,1
2018-04-09 17:30;63,4
2018-04-09 17:45;64,1
2018-04-09 18:00;66,25
2018-04-09 18:15;66,95
2018-04-09 18:30;65,85
2018-04-09 18:45;67,05
2018-04-09 19:00;72,95
2018-04-09 19:15;69,15
2018-04-09 19:30;68,9
2018-04-09 19:45;72,15
2018-04-09 20:00;71,95
2018-04-09 20:15;74
2018-04-09 20:30;77,05
2018-04-09 20:45;75,85
2018-04-09 21:00;75,7
2018-04-09 21:15;74,3
2018-04-09 21:30;73,15
2018-04-09 21:45;70,8
2018-04-09 22:00;70,35
2018-04-09 22:15;72,45
2018-04-09 22:30;70,4
2018-04-09 22:45;70,9
2018-04-09 23:00;78,6
2018-04-09 23:15;71
2018-04-09 23:30;74,7
2018-04-09 23:45;80,4
2018-04-10 00:00;69,8
2018-04-10 00:15;70,1
2018-04-10 00:30;70,4
2018-04-10 00:45;70,8
2018-04-10 01:00;71
2018-04-10 01:15;71,95
2018-04-10 01:30;71,5
2018-04-10 01:45;70
2018-04-10 02:00;71,05
2018-04-10 02:15;71,9
2018-04-10 02:30;70,9
2018-04-10 02:45;72,7
2018-04-10 03:00;73
2018-04-10 03:15;71,5
2018-04-10 03:30;73,15
2018-04-10 03:45;75,6
2018-04-10 04:00;74
2018-04-10 04:15;72,5
2018-04-10 04:30;72
2018-04-10 04:45;69,95
2018-04-10 05:00;68,7
2018-04-10 05:15;70,7
2018-04-10 05:30;70,65
2018-04-10 05:45;69,7
2018-04-10 06:00;69
2018-04-10 06:15;65,3
2018-04-10 06:30;64,5
2018-04-10 06:45;64,9
2018-04-10 07:00;61,7
2018-04-10 07:15;59,15
2018-04-10 07:30;59,9
2018-04-10 07:45;63,2
2018-04-10 08:00;61,55
2018-04-10 08:15;62,55
2018-04-10 08:30;63,65
2018-04-10 08:45;64,65
2018-04-10 09:00;64,55
2018-04-10 09:15;63,75
2018-04-10 09:30;64,85
2018-04-10 09:45;64,45
2018-04-10 10:00;64,6
2018-04-10 10:15;67,6
2018-04-10 10:30;69,4
2018-04-10 10:45;69,2
2018-04-10 11:00;70,7
2018-04-10 11:15;70,25
2018-04-10 11:30;71,05
2018-04-10 11:45;71,2
2018-04-10 12:00;72,05
2018-04-10 12:15;72,45
2018-04-10 12:30;72,4
2018-04-10 12:45;72,3
2018-04-10 13:00;73,35
2018-04-10 13:15;74,65
2018-04-10 13:30;74,4
2018-04-10 13:45;69,8
2018-04-10 14:00;67,95
2018-04-10 14:15;67,95
2018-04-10 14:30;67,7
2018-04-10 14:45;66,95
2018-04-10 15:00;67
2018-04-10 15:15;67,85
2018-04-10 15:30;66,15
2018-04-10 15:45;66,1
2018-04-10 16:00;67,45
2018-04-10 16:15;65,2
2018-04-10 16:30;64,45
2018-04-10 16:45;67,2
2018-04-10 17:00;67,15
2018-04-10 17:15;64,25
2018-04-10 17:30;65,3
2018-04-10 17:45;69
2018-04-10 18:00;64,35
2018-04-10 18:15;66,6
2018-04-10 18:30;67,3
2018-04-10 18:45;68,5
2018-04-10 19:00;72,8
2018-04-10 19:15;71,9
2018-04-10 19:30;72,2
2018-04-10 19:45;72,95
2018-04-10 20:00;76,55
2018-04-10 20:15;81,15
2018-04-10 20:30;80,1
2018-04-10 20:45;81,35
2018-04-10 21:00;82,8
2018-04-10 21:15;78,4
2018-04-10 21:30;77,85
2018-04-10 21:45;77,7
2018-04-10 22:00;75,85
2018-04-10 22:15;75,65
2018-04-10 22:30;77,4
2018-04-10 22:45;76,7
2018-04-10 23:00;83,05
2018-04-10 23:15;81,05
2018-04-10 23:30;82,25
2018-04-10 23:45;86,35
2018-04-11 00:00;78,2
2018-04-11 00:15;77,55
2018-04-11 00:30;76,65
2018-04-11 00:45;75,7
2018-04-11 01:00;73,95
2018-04-11 01:15;76,5
2018-04-11 01:30;77,05
2018-04-11 01:45;73,8
2018-04-11 02:00;74,35
2018-04-11 02:15;74,3
2018-04-11 02:30;75,65
2018-04-11 02:45;74,7
2018-04-11 03:00;76,85
2018-04-11 03:15;77,55
2018-04-11 03:30;76,85
2018-04-11 03:45;79,4
2018-04-11 04:00;80,65
2018-04-11 04:15;77,4
2018-04-11 04:30;77,7
2018-04-11 04:45;78,65
2018-04-11 05:00;76,8
2018-04-11 05:15;78
2018-04-11 05:30;79,45
2018-04-11 05:45;77,8
2018-04-11 06:00;67,9
2018-04-11 06:15;70,85
2018-04-11 06:30;69
2018-04-11 06:45;68,15
2018-04-11 07:00;68,95
2018-04-11 07:15;68,45
2018-04-11 07:30;69,6
2018-04-11 07:45;74,25
2018-04-11 08:00;72,8
2018-04-11 08:15;72,35
2018-04-11 08:30;76,05
2018-04-11 08:45;79,7
2018-04-11 09:00;87,1
2018-04-11 09:15;85,7
2018-04-11 09:30;84,75
2018-04-11 09:45;84,95
2018-04-11 10:00;88,1
2018-04-11 10:15;88,1
2018-04-11 10:30;89,35
2018-04-11 10:45;89,55
2018-04-11 11:00;89,3
2018-04-11 11:15;88,45
2018-04-11 11:30;92,15
2018-04-11 11:45;90,65
2018-04-11 12:00;88,05
2018-04-11 12:15;91
2018-04-11 12:30;89,55
2018-04-11 12:45;87,6
2018-04-11 13:00;88,85
2018-04-11 13:15;91,15
2018-04-11 13:30;90,6
2018-04-11 13:45;89,75
2018-04-11 14:00;88,6
2018-04-11 14:15;85,05
2018-04-11 14:30;86,95
2018-04-11 14:45;87,2
2018-04-11 15:00;83,3
2018-04-11 15:15;79,9
2018-04-11 15:30;78,05
2018-04-11 15:45;77,5
2018-04-11 16:00;73,9
2018-04-11 16:15;72,25
2018-04-11 16:30;73,6
2018-04-11 16:45;73,3
2018-04-11 17:00;74,8
2018-04-11 17:15;75,3
2018-04-11 17:30;74,15
2018-04-11 17:45;76,1
2018-04-11 18:00;73,45
2018-04-11 18:15;69,85
2018-04-11 18:30;69,65
2018-04-11 18:45;73,65
2018-04-11 19:00;76,45
2018-04-11 19:15;75,6
2018-04-11 19:30;76,4
2018-04-11 19:45;78,15
2018-04-11 20:00;83,05
2018-04-11 20:15;89,55
2018-04-11 20:30;87,45
2018-04-11 20:45;87,8
2018-04-11 21:00;87,15
2018-04-11 21:15;83,95
2018-04-11 21:30;82,15
2018-04-11 21:45;80,9
2018-04-11 22:00;81,6
2018-04-11 22:15;81,55
2018-04-11 22:30;81,3
2018-04-11 22:45;80,45
2018-04-11 23:00;83,05
2018-04-11 23:15;76,75
2018-04-11 23:30;77,6
2018-04-11 23:45;82,7
2018-04-12 00:00;73,05
2018-04-12 00:15;73,55
2018-04-12 00:30;70,6
2018-04-12 00:45;70,45
2018-04-12 01:00;69,75
2018-04-12 01:15;69,55
2018-04-12 01:30;68,45
2018-04-12 01:45;67,35
2018-04-12 02:00;68,1
2018-04-12 02:15;67,35
2018-04-12 02:30;68,1
2018-04-12 02:45;69,15
2018-04-12 03:00;70,1
2018-04-12 03:15;68,8
2018-04-12 03:30;70
2018-04-12 03:45;70,85
2018-04-12 04:00;71,65
2018-04-12 04:15;69,5
2018-04-12 04:30;69,6
2018-04-12 04:45;69,8
2018-04-12 05:00;70,95
2018-04-12 05:15;70,55
2018-04-12 05:30;70,6
2018-04-12 05:45;69,25
2018-04-12 06:00;68
2018-04-12 06:15;67,4
2018-04-12 06:30;66,95
2018-04-12 06:45;65,65
2018-04-12 07:00;63,7
2018-04-12 07:15;64
2018-04-12 07:30;65,45
2018-04-12 07:45;70,1
2018-04-12 08:00;71,9
2018-04-12 08:15;73,25
2018-04-12 08:30;76
2018-04-12 08:45;76,6
2018-04-12 09:00;79,85
2018-04-12 09:15;80,8
2018-04-12 09:30;81,2
2018-04-12 09:45;81,6
2018-04-12 10:00;84,35
2018-04-12 10:15;85,7
2018-04-12 10:30;84,65
2018-04-12 10:45;85,05
2018-04-12 11:00;87,45
2018-04-12 11:15;86,1
2018-04-12 11:30;88,3
2018-04-12 11:45;88,75
2018-04-12 12:00;87,45
2018-04-12 12:15;87,35
2018-04-12 12:30;88,85
2018-04-12 12:45;92,15
2018-04-12 13:00;92,75
2018-04-12 13:15;94,55
2018-04-12 13:30;94,45
2018-04-12 13:45;94
2018-04-12 14:00;91
2018-04-12 14:15;88,1
2018-04-12 14:30;89,2
2018-04-12 14:45;88,3
2018-04-12 15:00;86,8
2018-04-12 15:15;83,2
2018-04-12 15:30;82,8
2018-04-12 15:45;77,4
2018-04-12 16:00;74,05
2018-04-12 16:15;70,05
2018-04-12 16:30;68,3
2018-04-12 16:45;69,35
2018-04-12 17:00;71,7
2018-04-12 17:15;68,9
2018-04-12 17:30;70,15
2018-04-12 17:45;70,25
2018-04-12 18:00;66,55
2018-04-12 18:15;67,5
2018-04-12 18:30;69,4
2018-04-12 18:45;70,3
2018-04-12 19:00;73,85
2018-04-12 19:15;72,25
2018-04-12 19:30;70,95
2018-04-12 19:45;73,45
2018-04-12 20:00;76,1
2018-04-12 20:15;77,95
2018-04-12 20:30;80,15
2018-04-12 20:45;79,95
2018-04-12 21:00;82,35
2018-04-12 21:15;80,7
2018-04-12 21:30;79,35
2018-04-12 21:45;77,95
2018-04-12 22:00;76,9
2018-04-12 22:15;76,1
2018-04-12 22:30;77,5
2018-04-12 22:45;74,6
2018-04-12 23:00;78,6
2018-04-12 23:15;76,8
2018-04-12 23:30;79,45
2018-04-12 23:45;80,8
2018-04-13 00:00;72,75
2018-04-13 00:15;71,9
2018-04-13 00:30;71,45
2018-04-13 00:45;72,85
2018-04-13 01:00;73,3
2018-04-13 01:15;72,15
2018-04-13 01:30;71,65
2018-04-13 01:45;71,4
2018-04-13 02:00;71
2018-04-13 02:15;71,6
2018-04-13 02:30;71,35
2018-04-13 02:45;69,7
2018-04-13 03:00;70,45
2018-04-13 03:15;70,35
2018-04-13 03:30;70,7
2018-04-13 03:45;72,2
2018-04-13 04:00;71,75
2018-04-13 04:15;69,8
2018-04-13 04:30;68,9
2018-04-13 04:45;70,1
2018-04-13 05:00;69,8
2018-04-13 05:15;69,2
2018-04-13 05:30;69,6
2018-04-13 05:45;68,4
2018-04-13 06:00;67,35
2018-04-13 06:15;68,5
2018-04-13 06:30;68,85
2018-04-13 06:45;67,15
2018-04-13 07:00;65,45
2018-04-13 07:15;66,25
2018-04-13 07:30;67,2
2018-04-13 07:45;72,85
2018-04-13 08:00;72,15
2018-04-13 08:15;74,1
2018-04-13 08:30;76
2018-04-13 08:45;78,35
2018-04-13 09:00;78,55
2018-04-13 09:15;81,95
2018-04-13 09:30;81
2018-04-13 09:45;79,7
2018-04-13 10:00;81,15
2018-04-13 10:15;82
2018-04-13 10:30;82,25
2018-04-13 10:45;85,45
2018-04-13 11:00;86,8
2018-04-13 11:15;85,75
2018-04-13 11:30;85,7
2018-04-13 11:45;85,2
2018-04-13 12:00;87,8
2018-04-13 12:15;88,15
2018-04-13 12:30;88,8
2018-04-13 12:45;87,55
2018-04-13 13:00;89,5
2018-04-13 13:15;90,4
2018-04-13 13:30;90,1
2018-04-13 13:45;88,5
2018-04-13 14:00;86,3
2018-04-13 14:15;84,7
2018-04-13 14:30;83,95
2018-04-13 14:45;83,55
2018-04-13 15:00;81,35
2018-04-13 15:15;79,35
2018-04-13 15:30;77,35
2018-04-13 15:45;74,6
2018-04-13 16:00;71,05
2018-04-13 16:15;66,8
2018-04-13 16:30;66,35
2018-04-13 16:45;67,7
2018-04-13 17:00;70,25
2018-04-13 17:15;67,75
2018-04-13 17:30;67,85
2018-04-13 17:45;70,25
2018-04-13 18:00;66,85
2018-04-13 18:15;66,3
2018-04-13 18:30;65,2
2018-04-13 18:45;68,2
2018-04-13 19:00;71,95
2018-04-13 19:15;70,95
2018-04-13 19:30;70,7
2018-04-13 19:45;72,4
2018-04-13 20:00;76,25
2018-04-13 20:15;80,75
2018-04-13 20:30;81,85
2018-04-13 20:45;82,95
2018-04-13 21:00;82,8
2018-04-13 21:15;80,1
2018-04-13 21:30;78,4
2018-04-13 21:45;77
2018-04-13 22:00;76,6
2018-04-13 22:15;76,4
2018-04-13 22:30;75,5
2018-04-13 22:45;73,6
2018-04-13 23:00;77,4
2018-04-13 23:15;72,95
2018-04-13 23:30;73,45
2018-04-13 23:45;75,95
2018-04-14 00:00;70,6
2018-04-14 00:15;70,65
2018-04-14 00:30;70
2018-04-14 00:45;70,55
2018-04-14 01:00;73
2018-04-14 01:15;73,35
2018-04-14 01:30;73,1
2018-04-14 01:45;72,7
2018-04-14 02:00;72,5
2018-04-14 02:15;73,2
2018-04-14 02:30;72,4
2018-04-14 02:45;75,1
2018-04-14 03:00;73,4
2018-04-14 03:15;71,65
2018-04-14 03:30;72,65
2018-04-14 03:45;73,6
2018-04-14 04:00;73,55
2018-04-14 04:15;72,7
2018-04-14 04:30;73,4
2018-04-14 04:45;72,45
2018-04-14 05:00;73,25
2018-04-14 05:15;74,3
2018-04-14 05:30;70,05
2018-04-14 05:45;69,6
2018-04-14 06:00;68,25
2018-04-14 06:15;67,75
2018-04-14 06:30;66,55
2018-04-14 06:45;65,3
2018-04-14 07:00;64,05
2018-04-14 07:15;61,1
2018-04-14 07:30;59,9
2018-04-14 07:45;59,8
2018-04-14 08:00;60,1
2018-04-14 08:15;61,5
2018-04-14 08:30;61,9
2018-04-14 08:45;62,35
2018-04-14 09:00;62,3
2018-04-14 09:15;62,65
2018-04-14 09:30;61,7
2018-04-14 09:45;61,85
2018-04-14 10:00;61,35
2018-04-14 10:15;62,2
2018-04-14 10:30;62,1
2018-04-14 10:45;62,95
2018-04-14 11:00;62,75
2018-04-14 11:15;61,4
2018-04-14 11:30;63,15
2018-04-14 11:45;62,4
2018-04-14 12:00;62,05
2018-04-14 12:15;61,8
2018-04-14 12:30;60,5
2018-04-14 12:45;61,55
2018-04-14 13:00;63,4
2018-04-14 13:15;63,35
2018-04-14 13:30;63,5
2018-04-14 13:45;64
2018-04-14 14:00;62,8
2018-04-14 14:15;62,35
2018-04-14 14:30;62,55
2018-04-14 14:45;62,95
2018-04-14 15:00;62,75
2018-04-14 15:15;62,5
2018-04-14 15:30;62,95
2018-04-14 15:45;62,75
2018-04-14 16:00;62,8
2018-04-14 16:15;60,8
2018-04-14 16:30;61,3
2018-04-14 16:45;62,25
2018-04-14 17:00;63,15
2018-04-14 17:15;60,75
2018-04-14 17:30;62,25
2018-04-14 17:45;65,3
2018-04-14 18:00;62,9
2018-04-14 18:15;62,9
2018-04-14 18:30;63
2018-04-14 18:45;65,15
2018-04-14 19:00;70,55
2018-04-14 19:15;69,7
2018-04-14 19:30;70,65
2018-04-14 19:45;72,9
2018-04-14 20:00;74,3
2018-04-14 20:15;77,95
2018-04-14 20:30;79
2018-04-14 20:45;80,1
2018-04-14 21:00;80,25
2018-04-14 21:15;79,95
2018-04-14 21:30;76,85
2018-04-14 21:45;75,55
2018-04-14 22:00;74,35
2018-04-14 22:15;74,15
2018-04-14 22:30;74,1
2018-04-14 22:45;74,6
2018-04-14 23:00;79,3
2018-04-14 23:15;76
2018-04-14 23:30;74,7
2018-04-14 23:45;77,3
2018-04-15 00:00;70,45
2018-04-15 00:15;68,15
2018-04-15 00:30;68,2
2018-04-15 00:45;70,3
2018-04-15 01:00;69,6
2018-04-15 01:15;69,7
2018-04-15 01:30;69,4
2018-04-15 01:45;69,55
2018-04-15 02:00;69,8
2018-04-15 02:15;69,9
2018-04-15 02:30;69,55
2018-04-15 02:45;71,4
2018-04-15 03:00;72,4
2018-04-15 03:15;71,15
2018-04-15 03:30;72,45
2018-04-15 03:45;73,25
2018-04-15 04:00;71,1
2018-04-15 04:15;69,25
2018-04-15 04:30;72,1
2018-04-15 04:45;71,1
2018-04-15 05:00;70,25
2018-04-15 05:15;71,1
2018-04-15 05:30;69,9
2018-04-15 05:45;69,55
2018-04-15 06:00;72,3
2018-04-15 06:15;71,9
2018-04-15 06:30;72
2018-04-15 06:45;70,6
2018-04-15 07:00;65,9
2018-04-15 07:15;64,7
2018-04-15 07:30;64,7
2018-04-15 07:45;64,05
2018-04-15 08:00;63,55
2018-04-15 08:15;64
2018-04-15 08:30;64,2
2018-04-15 08:45;64,35
2018-04-15 09:00;64,35
2018-04-15 09:15;66,2
2018-04-15 09:30;63,8
2018-04-15 09:45;64,6
2018-04-15 10:00;63,2
2018-04-15 10:15;62,85
2018-04-15 10:30;62,7
2018-04-15 10:45;64,45
2018-04-15 11:00;66,95
2018-04-15 11:15;64,8
2018-04-15 11:30;64,5
2018-04-15 11:45;65,95
2018-04-15 12:00;66,25
2018-04-15 12:15;64,65
2018-04-15 12:30;64,85
2018-04-15 12:45;64,7
2018-04-15 13:00;64,75
2018-04-15 13:15;68,55
2018-04-15 13:30;70,05
2018-04-15 13:45;71,3
2018-04-15 14:00;70,3
2018-04-15 14:15;69,5
2018-04-15 14:30;70,1
2018-04-15 14:45;68,75
2018-04-15 15:00;68,7
2018-04-15 15:15;69,55
2018-04-15 15:30;69,7
2018-04-15 15:45;68,5
2018-04-15 16:00;67,55
2018-04-15 16:15;65,8
2018-04-15 16:30;66,05
2018-04-15 16:45;68,55
2018-04-15 17:00;70,55
2018-04-15 17:15;68
2018-04-15 17:30;69,85
2018-04-15 17:45;74,15
2018-04-15 18:00;70,8
2018-04-15 18:15;70,9
2018-04-15 18:30;70,9
2018-04-15 18:45;72,05
2018-04-15 19:00;72,15
2018-04-15 19:15;69,45
2018-04-15 19:30;71,1
2018-04-15 19:45;73,5
2018-04-15 20:00;77,45
2018-04-15 20:15;80,4
2018-04-15 20:30;81,3
2018-04-15 20:45;81,6
2018-04-15 21:00;81,05
2018-04-15 21:15;81,1
2018-04-15 21:30;80
2018-04-15 21:45;78,75
2018-04-15 22:00;77,5
2018-04-15 22:15;75,4
2018-04-15 22:30;73,7
2018-04-15 22:45;72,9
2018-04-15 23:00;78,4
2018-04-15 23:15;74,2
2018-04-15 23:30;75,3
2018-04-15 23:45;75,35

